Weather Roundup
Issued by NWS Chicago, IL

Home | Current Version | Previous Version | Text Only | Print | Product List | Glossary On
Versions: 1 2 3 4 5 6 7 8 9 10 11 12 13 14 15 16 17 18 19 20 21 22 23 24 25 26 27 28 29 30 31 32 33 34 35 36 37 38 39 40 41 42 43 44 45 46 47 48 49 50
000
NZUS59 KLOT 240110
HRRLOT

CHICAGO AREA WEATHER ROUNDUP
NATIONAL WEATHER SERVICE CHICAGO/ROMEOVILLE IL
800 PM CDT WED JUL 23 2014

NOTE: "FAIR" INDICATES FEW OR NO CLOUDS BELOW 12,000 FEET WITH NO
SIGNIFICANT WEATHER AND/OR OBSTRUCTIONS TO VISIBILITY.

* THESE STATIONS ARE NOT UNDER NWS QUALITY CONTROL. THEY ALSO MAY NOT
  REPORT WEATHER SUCH AS PRECIPITATION OR FOG.

ILZ005-006-012>014-019>023-240200-
NORTHEAST ILLINOIS

CITY           SKY/WX    TMP DP  RH WIND       PRES   REMARKS
OHARE          PTCLDY    65  49  56 N12       30.14F
MIDWAY         PTCLDY    67  50  54 N17G24    30.14S
AURORA         CLEAR     67  54  63 NE8       30.14S
LANSING*       CLEAR     63  50  62 N12G21    30.14F
JOLIET*        CLEAR     65  52  62 NE7G16    30.14S
WAUKEGAN       CLEAR     61  50  67 N8G17     30.15S
DUPAGE AIRPORT CLEAR     65  51  60 NE12      30.14S
WHEELING       CLEAR     64  52  64 N6G16     30.17R
KANKAKEE*      CLEAR     64  54  70 N10G20    30.12F
MORRIS*        CLEAR     67  55  65 NE5       30.13S
LEWIS AIRPORT* CLEAR     64  52  64 NE13      30.14S
NORTHERLY IS     N/A     62  52  69 N10         N/A
$$

WIZ051-052-058>065-066-070>072-240200-
SOUTHEAST WISCONSIN

CITY           SKY/WX    TMP DP  RH WIND       PRES   REMARKS
MILWAUKEE      PTCLDY    61  51  70 N8        30.16F
KENOSHA*       CLEAR     62  51  67 NE8       30.16S
RACINE*        CLEAR     61  53  75 N7        30.18S
BURLINGTON     CLEAR     60  50  69 E6        30.17S
WAUKESHA       PTCLDY    63  48  59 E8        30.18S
WEST BEND      CLEAR     61  46  59 NE7       30.17S
$$

INZ001>003-010>013-019-020-240200-
NORTHWEST INDIANA

CITY           SKY/WX    TMP DP  RH WIND       PRES   REMARKS
GARY*          PTCLDY    64  52  63 N25       30.14S
MICHIGAN CITY* NOT AVBL
RENSSELAER*    NOT AVBL
VALPARAISO     CLEAR     62  50  64 VRB6G16   30.12R
$$

LMZ740>746-240200-
SOUTHERN LAKE MICHIGAN

STATION/POSITION TIME  SKY/WX   TEMP WIND        PRES    VSBY
                                AIR  DIR/SP/G
                 (UTC)          (F)  (DEG/KT/KT) (MB)    (MI)
HARRISON CRIB    0100            63  360/ 19/ 22   N/A
BURNHAM HARBOR   0100            62  350/ 11/ 16   N/A
CALUMET HARBOR   0100            63  340/  8/ 13 1019.5F
BURNS HARBOR     NOT AVBL
MICHIGAN CITY    0100            63  360/ 24/ 27   N/A
$$

ABBREVIATIONS USED IN REMARKS
   TC - TEMPERATURE IN CELSIUS
  WCI - WIND CHILL INDEX
   HX - HEAT INDEX
  VSB - VISIBILITY
$$



USA.gov is the U.S. government's official web portal to all federal, state and local government web resources and services.